www.pogodaiklimat.ru

Погода и климат >> Архив погоды >> Литва >> Klaip?da


АРХИВ ПОГОДЫ в Klaip?da

Время (UTC), дата Ветер
(напр.,м/с)
 
Видим.   Явления Облачность Т
(С)
Тd
(С)
f
(%)
Тe
(С)
Тes
(С)
Комфортность P
(гПа)
Po
(гПа)
Тmin
(С)
Tmax
(С)
R
(мм)
R24
(мм)
S
(см)
00 14.02 В 2-3
{3}
3400 м дымка 4/0
[Ci sp]
-3.7 -4.2 96 -8 -8 по сезону 1020.3 1019.4
03 14.02 В 2-2
{4}
3600 м дымка ясно -4.5 -5.1 96 -9 -9 по сезону 1020.7 1019.8
06 14.02 В 1-3
{4}
4800 м дымка 10/10 600 м
[Sc]
-4.1 -5.0 93 -7 -7 по сезону 1021.9 1021.0 -4.8 2
09 14.02 СВ 1-2
{4}
8000 м дымка 8/3 600 м
[Sc Ac trans Ci sp]
-0.6 -2.4 88 -3 -2 по сезону 1023.6 1022.7
12 14.02 З 1-2
{4}
8000 м дымка 9/5 500 м
[Sc Ac trans Ci sp]
+1.9 -1.5 78 0 +1 тепло 1023.7 1022.8
15 14.02 СВ 1-2
{4}
8000 м дымка 10/10 600 м
[Sc]
+1.4 -1.5 81 -0 -0 тепло 1024.5 1023.6
18 14.02 СВ 1-1
{3}
4800 м 3/0
[Ci sp]
-0.9 -2.1 92 -3 -3 по сезону 1025.5 1024.6 +2.8
21 14.02 СВ 2-3
{4}
9000 м дымка 6/6 900 м
[Sc]
-2.1 -3.9 87 -6 -6 по сезону 1026.3 1025.4
00 15.02 СВ 2-3
{4}
17 км ясно -2.4 -5.7 78 -6 -6 по сезону 1026.1 1025.2
03 15.02 В 2-4
{4}
9000 м ясно -4.7 -6.0 91 -9 -9 по сезону 1026.2 1025.2
06 15.02 В 2-4
{4}
6000 м дымка ясно -5.9 -6.6 95 -10 -10 по сезону 1026.3 1025.3 -6.0 1
09 15.02 ЮВ 2-2
{4}
4000 м дымка 10/0
[Ci]
-3.0 -5.0 86 -7 -5 по сезону 1026.7 1025.8
12 15.02 Ю 2-3
{4}
10 км 6/0
[Ci sp]
+0.8 -3.0 76 -3 -0 по сезону 1025.0 1024.1
15 15.02 ЮВ 3-5
{5}
10 км 10/10 600 м
[Sc]
-0.9 -3.7 81 -6 -6 по сезону 1025.2 1024.3
18 15.02 Ю 3-5
{6}
10 км 10/10 600 м
[Sc]
-1.6 -4.5 81 -6 -6 по сезону 1024.8 1023.9 +1.3
21 15.02 Ю 3-5
{5}
10 км 10/10 600 м
[Sc]
-3.2 -5.3 85 -8 -8 по сезону 1023.8 1022.9
00 16.02 ЮВ 3-5
{6}
10 км 10/10 600 м
[Sc]
-4.1 -6.4 84 -9 -9 по сезону 1022.9 1022.0
03 16.02 ЮВ 4-6
{7}
10 км 10/10 600 м
[Sc]
-3.9 -6.1 85 -10 -10 прохладно 1021.0 1020.1
06 16.02 ЮВ 4-7
{8}
8000 м дымка 10/10 600 м
[Sc]
-3.6 -5.8 85 -10 -10 по сезону 1019.4 1018.5 -5.7 1
09 16.02 ЮВ 4-8
{8}
7000 м дымка 10/10 600 м
[Sc]
-2.1 -4.6 83 -8 -8 по сезону 1018.9 1018.0
12 16.02 ЮВ 2-5
{7}
6000 м слабый снег 10/10 600 м
[Frnb Ns]
-0.8 -3.3 83 -5 -5 по сезону 1018.6 1017.7
15 16.02 ЮВ 2-4
{5}
2100 м слабый снег 10/10 300 м
[Frnb Ns]
-1.1 -2.0 94 -5 -5 по сезону 1018.4 1017.5
18 16.02 ЮВ 3-5
{6}
3100 м слабый снег 10/10 600 м
[Frnb Ns]
-1.3 -1.9 96 -6 -6 по сезону 1018.3 1017.4 -0.8 1
21 16.02 ЮВ 3-5
{6}
1600 м слабый снег 10/10 200 м
[Frnb Ns]
-0.9 -1.5 96 -6 -6 по сезону 1017.6 1016.7
00 17.02 В 2-4
{5}
1400 м слабый снег 10/10 100 м
[Frnb Ns]
-0.8 -1.1 98 -5 -5 по сезону 1016.7 1015.8
03 17.02 СВ 2-4
{4}
2200 м слабый снег {туман} 10/10 100 м
[Frnb Ns]
-0.5 -0.8 98 -4 -4 по сезону 1016.4 1015.5
06 17.02 С 2-4
{4}
2200 м {снег, туман} 10/10 60 м
[St]
-1.4 -1.7 98 -5 -5 по сезону 1018.2 1017.3 -1.5 4 8
09 17.02 С 2-4
{4}
3500 м дымка 10/10 120 м
[St]
-1.8 -2.9 92 -6 -6 по сезону 1019.4 1018.5
12 17.02 СЗ 2-4
{4}
7000 м дымка 4/0
[Ci sp]
0.0 -2.4 84 -4 -1 по сезону 1020.3 1019.4
15 17.02 С 2-4
{6}
10 км 10/10 600 м
[Sc]
-0.7 -3.8 80 -4 -4 по сезону 1020.8 1019.9
18 17.02 С 2-4
{6}
12 км 8/0
[Ac trans Ci sp]
-1.4 -3.6 85 -5 -5 по сезону 1021.6 1020.7 +0.2 0.0
21 17.02 С 1-2
{6}
11 км 10/10 600 м
[Sc]
-2.6 -4.5 87 -5 -5 по сезону 1022.4 1021.5
00 18.02 СЗ 2-3
{5}
13 км 10/10 600 м
[Sc]
-3.8 -5.3 89 -8 -8 по сезону 1023.5 1022.6
03 18.02 С 1-5
{5}
8000 м дымка 10/10 600 м
[Sc]
-6.8 -7.6 94 -9 -9 по сезону 1025.6 1024.7
06 18.02 С 2-2
{3}
11 км 3/0
[Ci sp]
-5.6 -7.4 87 -10 -10 по сезону 1025.8 1024.8 -6.8 8
09 18.02 СЗ 2-3
{3}
19 км 9/4 600 м
[Sc Ci sp]
-1.0 -6.1 68 -4 -3 по сезону 1026.2 1025.3
12 18.02 З 3-4
{4}
20 км 4/3 600 м
[Sc Ac trans Ci sp]
+1.4 -4.5 65 -3 -1 по сезону 1026.3 1025.4
15 18.02 З 4-7
{7}
20 км 8/5 600 м
[Cu Sc Ci sp]
+1.1 -1.8 81 -4 -4 по сезону 1025.8 1024.9
18 18.02 З 3-6
{6}
20 км 10/10 600 м
[Sc]
+0.7 -0.4 92 -4 -4 по сезону 1025.3 1024.4 +1.8
21 18.02 С 1-2
{3}
13 км слабый ливневой снег 10/10 300 м
[Cb cap]
+0.4 -0.7 92 -2 -2 по сезону 1024.6 1023.7
00 19.02 В 1-1
{2}
4400 м слабый ливневой снег 10/10 300 м
[Cb cap]
-0.2 -0.5 98 -2 -2 по сезону 1023.7 1022.8
03 19.02 СЗ 2-2
{3}
17 км в посл. час ливневой снег 10/10 300 м
[Sc]
+0.8 +0.5 98 -3 -3 по сезону 1023.0 1022.1
06 19.02 С 1
{2}
10 км в посл. час ливневой снег 10/10 600 м
[Sc]
+0.3 0.0 98 -2 -2 тепло 1023.2 1022.3 -0.9 2 8
09 19.02 Ю 1-2
{2}
9000 м дымка {туман} 8/8 600 м
[Sc]
+1.6 +0.8 94 -0 0 тепло 1023.6 1022.7
12 19.02 ЮЗ 1-2
{3}
20 км {ливн. осадки} 6/6 600 м
[Sc]
+3.1 +0.2 81 +2 +3 тепло 1023.8 1022.9
15 19.02 штиль 0-1
{2}
19 км 9/4 600 м
[Sc Ci sp]
+0.8 -0.3 92 -0 -0 тепло 1024.0 1023.1
18 19.02 ЮВ 1-1
{2}
2800 м слабый ливневой снег 10/10 600 м
[Cb cap]
-0.2 -0.5 98 -2 -2 по сезону 1024.2 1023.3 +3.9 0.2
21 19.02 ЮВ 1-1
{1}
2800 м дымка 10/10 600 м
[Sc]
-0.7 -1.0 98 -3 -3 по сезону 1024.3 1023.4
00 20.02 ЮВ 2-3
{4}
2800 м в посл. час снег 10/10 60 м
[St]
-0.2 -0.5 98 -4 -4 по сезону 1024.4 1023.5
03 20.02 З 1-3
{4}
1400 м слабый снег 10/10 100 м
[Frnb Ns]
0.0 -0.3 98 -2 -2 по сезону 1024.0 1023.1
06 20.02 С 3-6
{6}
11 км {снег} 10/10 180 м
[St]
-1.5 -2.1 96 -7 -7 по сезону 1024.3 1023.4 -1.8 2 11
09 20.02 СВ 2-4
{7}
14 км 10/10 360 м
[Sc]
-2.9 -4.6 88 -7 -7 по сезону 1025.4 1024.5
12 20.02 СВ 2-4
{7}
16 км 10/10 450 м
[Sc]
-2.2 -4.7 83 -6 -6 по сезону 1025.5 1024.6
15 20.02 С 2-4
{5}
15 км 10/10 420 м
[Sc]
-3.3 -5.7 83 -7 -7 по сезону 1025.7 1024.8
18 20.02 С 1-2
{5}
15 км 10/10 700 м
[Sc]
-4.2 -7.2 80 -6 -6 по сезону 1026.2 1025.2 -1.1
21 20.02 С 1-2
{4}
11 км 10/10 750 м
[Sc]
-4.3 -7.7 77 -6 -6 по сезону 1026.6 1025.6

 

Местоположение метеостанции Klaip?da (Литва): широта 55.73 долгота 21.07 высота над уровнем моря 7 м.

В архиве по умолчанию представлена погода в Klaip?da за последнюю неделю. Архивные данные за месяц целиком и за предыдущие месяцы, начиная с января 2011 года, Вы можете получить, выбрав интересующий диапазон дат из раскрывающегося списка и нажав кнопку "Ввод!".

Внимание! Время в таблицах - всемирное. Для получения местного времени необходимо прибавить поправку, которая в Klaip?da равна 2 ч.

Смотрите также архив погоды в соседних городах и на ближайших метеорологических станциях:

Погода в Nidoje (Литва) (46 км)
Погода в ?ilut? (Литва) (49 км)
Погода в Рыбачьем (Калининградская область, Россия) (65 км)
Погода в Laukuvos (Литва) (74 км)
Погода в Tel?i? (Литва) (78 км)
Погода в Liep?ja (Латвия) (83 км)
Погода в Советске (Калининградская область, Россия) (90 км)
Погода в Пионерском (Калининградская область, Россия) (102 км)
Погода в Ma?eikiai (Литва) (104 км)
Погода в Калининграде (Калининградская область, Россия) (118 км)

Пояснения к столбцам:

Ветер - указаны скорость ветра в м/с - средняя за 10 мин, порывы в срок и между сроками (в фигурных скобках) и направление, откуда дует ветер: С - северный, СВ - северо-восточный, В - восточный, ЮВ - юго-восточный, Ю - южный, ЮЗ - юго-западный, З - западный, СЗ - северо-западный.
Видимость - горизонтальная дальность видимости в метрах или километрах. При видимости от 1 до 10 км при отсутствии осадков обычно наблюдается дымка, при ухудшении видимости до 1 км и менее - туман. В сухую погоду видимость может ухудшаться дымом, пылью или мглою.
Явления - указаны атмосферные явления, наблюдавшиеся в срок или в последний час перед сроком; фигурными скобками обозначены явления, наблюдавшиеся между сроками (за 1-3 часа до срока); квадратными скобками обозначены град или гололедные отложения с указанием их диаметра в мм.
Облачность - указаны через наклонную черту общая и нижняя облачность в баллах и высота нижней границы облаков в метрах; квадратными скобками обозначены формы облаков: Ci - перистые, Cs - перисто-слоистые, Cc - перисто-кучевые, Ac - высококучевые, As - высокослоистые, Sc - слоисто-кучевые, Ns - слоисто-дождевые, Cu - кучевые, Cb - кучево-дождевые. Подробнее классификацию облаков см. в Атласе облаков (PDF).
T - Температура воздуха - температура, измеренная на высоте 2 м над землей.
Td - Температура точки росы - температура, при понижении до которой содержащийся в воздухе водяной пар достигнет насыщения.
f - Относительная влажность воздуха - влажноcть воздуха, измеренная на высоте 2 м над землей.
Te - Эффективная температура - температура, которую ощущает одетый по сезону человек в тени. Характеристика душности погоды. При расчете учитывается влияние влажности воздуха и скорости ветра на теплоощущения человека.
Tes - Эффективная температура на солнце - температура, которую ощущает человек, с поправкой на солнечный нагрев. Характеристика знойности погоды. Зависит от высоты солнца над горизонтом, облачности и скорости ветра. Ночью, в пасмурную погоду, а также при ветре 12 м/с и более поправка равна нулю.
P - Атмосферное давление - приведенное к уровню моря атмосферное давление.
Po - Атмосферное давление - измеренное на уровне метеостанции атмосферное давление.
Tmin - Минимальная температура - минимум температуры воздуха на высоте 2 м над землей.
Tmax - Максимальная температура - максимум температуры воздуха на высоте 2 м над землей.
R - Количество осадков - Количество выпавших осадков за период времени, мм. При наведении курсора мыши на число - период времени, за который выпало указанное количество осадков.
R24 - Количество осадков - Количество выпавших осадков за 24 часа, мм.
S - Снежный покров - Высота снежного покрова, см. При наведении курсора мыши на число - состояние снежного покрова и степень покрытия местности в баллах.